Lapse_Rate
4.5 4.6 4.7 4.9 5.0 5.4 4.8 4.9 5.0 5.1 4.9 5.1 5.2 5.2 5.3 4.8 5.1 5.3 5.1 5.0 4.8 4.6 4.7 4.9 5.1 5.2 5.0 5.0 4.6 4.8 4.7 5.4 5.0 4.8 4.7 4.7 4.2 4.1 4.4 4.6 4.6 4.2 4.0 3.9 2.6 2.0 3.3 4.7 4.0 3.5 3.5 3.7 3.6 3.6
4.7 4.8 4.5 4.6 4.7 4.4 4.4 4.7 4.8 5.1 5.3 4.9 4.4 4.7 4.7 4.8 4.8 4.5 4.7 4.3 4.7 4.5 4.4 4.7 4.9 5.1 5.0 4.8 4.7 4.9 5.0 5.0 4.6 4.4 4.4 4.0 4.2 4.0 4.3 4.1 4.8 4.1 4.7 4.4 4.3 5.4 5.1 4.5 3.9 3.7 3.4 3.8 3.7 3.8
4.9 4.5 4.6 4.5 4.5 4.4 4.3 4.2 4.5 4.6 4.9 4.7 4.5 4.3 4.4 4.6 4.5 4.3 4.4 4.5 4.5 4.4 4.2 4.4 5.2 5.3 5.1 5.0 4.8 4.6 5.2 4.9 4.7 4.6 4.3 3.9 3.9 4.0 3.8 4.5 4.7 5.3 4.5 4.5 4.7 5.7 4.8 4.4 4.1 3.8 3.5 3.8 4.0 3.9
5.0 4.9 4.6 4.3 4.2 4.4 4.3 4.1 4.0 4.5 4.5 4.4 4.6 4.4 4.6 4.5 4.5 4.7 4.5 4.5 3.9 3.6 3.6 3.9 4.5 4.7 4.9 5.0 4.9 4.9 5.0 4.9 4.7 4.7 4.3 4.1 4.2 3.9 3.9 4.5 5.1 5.6 5.1 5.4 5.5 5.6 4.9 4.6 4.0 4.1 3.8 3.8 3.9 4.0
5.2 5.0 4.8 4.7 4.3 3.9 4.2 4.2 3.8 3.5 4.1 4.0 4.5 4.9 5.0 5.1 5.4 5.0 4.8 4.4 4.6 4.3 3.9 4.0 4.4 4.6 5.1 4.9 4.8 4.8 4.7 4.6 4.6 4.7 4.6 4.2 4.0 4.3 4.1 4.6 6.1 6.4 5.8 5.8 5.4 5.3 5.0 4.5 4.2 4.2 4.0 3.9 4.0 4.1
4.9 4.6 4.6 4.6 4.7 4.5 4.4 4.7 4.2 4.2 4.1 4.3 4.5 4.8 5.1 5.1 5.2 5.3 4.9 4.4 4.7 4.9 4.8 3.9 3.7 4.5 4.9 4.9 4.6 4.6 5.1 5.2 4.9 4.7 4.7 4.3 4.4 4.2 3.7 4.8 6.8 6.4 6.1 5.8 5.7 5.3 4.9 4.5 4.3 4.2 4.1 3.9 4.1 4.2
4.8 4.8 4.8 4.8 4.5 4.4 4.4 4.3 4.2 4.6 4.3 4.4 4.5 4.7 5.3 5.4 5.1 5.0 5.0 4.8 4.7 5.2 5.0 4.7 4.4 4.0 4.3 4.8 4.9 4.8 4.8 5.3 5.3 4.8 4.4 4.4 4.3 3.7 3.6 5.7 6.9 6.2 5.9 6.0 5.8 5.2 5.1 4.3 4.2 4.2 4.2 4.0 4.2 4.3
4.3 4.3 4.4 4.6 4.6 4.7 4.4 4.4 4.4 4.1 4.1 4.0 4.1 4.2 4.8 5.2 4.8 5.0 5.0 4.9 4.8 4.5 4.6 4.6 4.6 4.4 4.0 4.1 4.2 4.6 5.0 5.0 4.9 4.5 4.5 4.5 4.1 3.6 3.8 7.1 5.9 5.9 5.8 6.0 5.7 5.4 5.0 4.4 4.2 4.2 4.2 4.3 4.3 4.5
4.2 4.2 4.2 4.3 4.4 4.5 4.5 4.5 4.7 4.4 4.0 3.9 3.9 4.0 3.8 4.0 3.7 4.6 5.0 4.6 4.5 4.5 4.6 4.6 4.6 4.5 4.3 3.8 3.7 4.1 4.4 4.5 4.6 4.4 4.7 4.4 4.9 4.4 7.1 6.2 5.7 5.9 6.0 6.0 5.5 5.4 4.8 4.3 4.2 4.2 4.2 4.2 4.4 4.4
4.4 4.4 4.1 4.0 4.0 3.9 3.9 3.8 3.6 3.8 3.8 3.3 3.4 3.9 3.1 3.5 3.3 3.7 4.3 4.4 4.1 3.8 4.0 4.8 4.6 4.2 4.0 4.0 3.8 3.7 3.9 4.1 3.8 4.0 4.3 4.5 5.7 6.2 6.6 6.2 6.6 6.6 6.6 6.4 5.9 5.5 5.0 4.4 4.3 4.2 4.2 4.2 4.5 4.7
5.0 4.7 4.5 4.4 4.1 3.9 3.7 3.7 3.2 3.4 3.4 2.9 3.2 2.7 2.9 3.1 3.1 3.9 4.4 3.5 3.4 4.1 3.8 4.1 3.8 3.9 3.9 4.1 4.4 4.1 4.1 3.9 3.9 4.3 3.9 4.2 5.3 6.5 6.4 6.0 6.6 6.8 6.6 6.2 6.1 5.5 4.9 4.5 4.3 4.2 4.0 4.2 4.4 4.6
5.0 4.9 4.7 4.5 4.3 4.2 4.1 4.0 3.7 3.6 3.4 2.9 3.0 3.3 3.2 3.6 3.6 3.7 3.2 2.9 2.6 3.0 3.7 4.4 5.1 4.8 4.5 4.2 4.1 4.2 4.2 4.0 4.2 4.2 3.8 3.8 5.2 6.5 6.7 6.3 6.7 6.5 6.4 6.2 5.8 5.1 4.6 4.4 4.1 4.0 4.0 4.1 4.3 4.5
4.6 4.4 3.8 3.3 3.9 4.0 3.8 3.9 3.8 3.8 3.7 3.3 3.4 3.6 4.2 3.7 3.6 2.9 3.2 3.0 2.9 4.6 5.7 6.1 6.1 5.4 4.8 4.4 4.3 4.4 4.2 4.3 3.9 3.5 3.6 4.8 6.3 7.1 6.9 6.5 6.5 6.3 6.1 5.9 5.5 4.6 4.4 4.2 3.9 3.8 4.0 4.1 4.4 4.6
3.7 3.7 3.3 2.6 2.7 3.1 3.4 3.6 3.3 3.9 3.7 3.4 4.2 4.7 4.7 4.2 3.6 3.7 4.5 5.1 5.4 5.9 6.2 5.9 5.5 5.2 4.9 4.8 4.5 4.2 4.0 3.8 3.4 3.4 4.1 5.9 7.4 7.2 6.9 6.6 6.5 6.1 5.7 5.6 5.0 4.4 4.3 4.1 3.8 3.9 4.0 4.2 4.4 4.6
3.3 3.3 3.2 3.1 3.1 3.1 3.4 3.5 3.6 3.9 4.1 4.6 5.1 5.2 4.4 3.8 4.1 4.6 5.3 6.0 6.1 6.4 6.8 6.9 6.7 6.1 5.4 4.8 4.2 4.0 4.0 4.1 4.1 4.6 6.3 6.9 7.0 6.8 6.5 6.5 6.4 5.8 5.7 5.2 4.6 4.3 4.2 3.9 3.9 4.0 4.0 4.2 4.3 4.5
3.5 3.7 3.5 3.5 3.4 3.4 3.7 4.0 4.8 4.5 4.6 5.1 5.7 4.4 4.0 4.6 4.7 5.5 6.3 6.5 6.8 6.9 7.0 6.5 6.3 5.5 5.0 5.0 4.8 4.9 4.8 5.4 5.6 6.2 6.5 6.6 6.8 6.6 6.1 6.0 5.9 5.8 5.3 4.9 4.5 4.2 4.0 3.8 3.9 3.8 4.0 4.2 4.3 4.4
4.4 4.2 4.2 4.4 4.3 4.4 4.7 4.9 5.6 5.1 5.2 5.3 4.4 4.6 4.9 5.4 5.8 6.4 6.7 6.8 6.9 6.9 6.5 6.5 6.0 5.9 5.9 5.3 5.0 5.2 5.7 6.2 6.5 6.5 6.5 6.2 6.0 5.6 5.5 5.6 5.6 5.5 5.0 4.6 4.3 4.1 3.9 3.7 3.7 3.8 3.8 4.0 4.1 4.1
5.2 5.3 5.4 5.7 5.8 5.9 5.7 5.6 6.1 5.9 5.6 5.4 5.4 5.8 6.1 6.2 6.3 6.5 6.5 6.5 6.7 6.7 6.6 6.6 6.5 6.3 5.9 6.3 6.1 6.2 6.3 5.9 5.6 5.7 5.7 5.8 5.9 5.7 5.4 5.0 5.4 5.1 4.7 4.4 4.2 4.0 3.8 3.7 3.7 3.7 3.8 4.0 4.0 4.0
7.1 7.1 7.2 7.4 7.0 6.5 6.1 6.1 6.4 6.2 5.9 6.0 6.1 6.2 6.5 6.4 6.4 6.3 6.4 6.4 6.5 6.5 6.7 6.6 6.4 6.1 6.6 6.6 6.5 6.2 5.6 5.4 5.4 5.3 5.6 5.7 5.6 5.5 4.7 4.8 4.9 4.8 4.4 4.2 4.0 3.8 3.8 3.8 3.9 3.9 3.9 4.0 3.9 3.8
7.9 8.1 8.3 8.1 7.8 7.2 6.6 6.8 6.7 6.4 6.2 6.1 6.2 6.4 6.6 6.6 6.6 6.5 6.5 6.5 6.4 6.3 6.7 6.5 6.8 7.2 6.8 6.1 5.8 6.0 6.1 5.9 5.7 5.5 5.6 5.5 5.5 4.9 4.4 4.5 4.4 4.5 4.3 4.2 4.2 3.9 3.8 3.7 3.8 3.7 3.9 4.0 3.9 3.6
7.9 8.3 8.5 8.2 7.9 7.5 7.6 7.6 6.9 6.6 6.6 6.2 6.3 6.5 6.5 6.6 6.7 6.7 6.6 6.4 6.3 6.3 6.5 7.0 7.2 7.0 6.6 6.0 5.8 5.9 6.2 6.3 6.4 6.1 5.8 5.2 4.9 4.3 4.2 4.0 3.9 4.1 4.1 4.2 4.0 3.8 3.7 3.8 3.8 3.8 3.9 3.9 3.7 3.4
8.3 8.5 8.4 8.3 8.0 7.8 7.9 7.7 6.9 6.8 6.6 6.4 6.3 6.3 6.3 6.4 6.5 6.5 6.5 6.5 6.4 6.6 7.1 7.2 6.9 6.5 6.5 6.0 6.0 6.3 6.3 5.8 5.8 5.7 5.8 5.3 4.4 4.4 4.6 3.9 3.7 3.9 3.9 3.8 3.9 3.9 4.0 3.8 3.7 3.9 3.9 3.8 3.7 3.4
8.4 8.3 8.3 8.2 7.8 7.9 7.8 7.6 7.3 7.0 6.6 6.4 6.5 6.5 6.5 6.4 6.4 6.4 6.2 6.5 6.6 7.2 7.7 7.1 6.8 6.5 6.2 5.7 5.7 5.7 5.8 5.8 5.8 5.8 5.9 5.6 4.4 3.6 3.6 3.9 4.1 3.6 3.9 3.9 3.9 4.0 3.8 3.9 4.0 4.0 4.0 3.9 3.7 3.3
8.2 8.3 8.0 7.8 7.8 8.0 7.4 7.2 7.0 6.6 6.4 6.3 6.5 6.5 6.3 6.3 6.4 6.4 6.4 6.7 7.1 7.8 7.3 6.9 6.7 6.7 6.5 6.1 5.5 5.3 5.1 5.6 5.4 5.5 5.6 5.6 4.7 3.6 3.6 3.5 3.1 3.7 3.9 3.7 3.8 4.1 4.1 4.3 4.2 4.0 4.0 3.8 3.5 3.5
8.0 7.7 7.8 7.7 7.6 7.2 7.0 6.9 6.5 6.5 6.3 6.6 6.7 6.4 6.2 6.4 6.5 6.5 6.5 6.6 7.2 7.5 7.4 7.1 7.1 7.0 6.5 6.1 5.5 5.2 5.2 4.9 4.8 5.1 5.3 5.1 3.8 3.0 2.9 2.9 3.5 3.9 4.2 4.3 4.3 4.2 4.1 4.1 4.3 4.2 4.1 3.8 3.6 3.7
7.7 7.9 7.6 7.3 7.4 7.2 7.0 6.8 6.8 6.7 6.4 6.7 6.9 6.8 7.0 7.1 7.1 6.7 6.3 6.8 7.2 7.4 7.3 7.0 7.1 7.1 6.6 6.0 5.7 5.5 5.3 4.4 4.3 4.6 4.4 4.3 3.6 3.1 2.8 3.1 3.4 3.8 4.4 4.4 4.2 4.1 4.3 4.3 4.3 4.2 4.0 3.8 3.7 3.7
7.7 7.6 7.6 7.6 7.4 7.3 7.1 7.4 7.5 7.5 7.5 7.5 7.4 7.4 7.3 7.0 7.1 7.0 7.1 7.4 7.5 7.4 7.2 7.2 6.8 6.9 6.9 6.4 5.8 5.7 5.4 4.9 4.5 4.4 4.2 3.7 2.8 3.0 2.8 3.1 3.3 3.8 4.1 4.2 4.2 4.3 4.4 4.4 4.3 4.2 4.1 4.0 3.9 3.8
7.3 7.6 7.7 7.7 7.3 7.4 7.3 7.5 7.5 7.5 7.4 7.4 7.4 7.2 7.2 7.2 7.3 7.4 7.4 7.2 7.2 7.0 6.9 6.8 6.8 6.5 6.4 6.0 5.6 5.5 4.6 4.7 4.4 4.2 3.8 3.5 2.8 2.6 2.8 3.3 3.3 4.0 4.4 4.4 4.4 4.5 4.5 4.5 4.5 4.3 4.2 4.2 4.1 4.0
7.6 7.6 7.4 7.6 7.6 7.5 7.3 7.3 7.4 7.5 7.6 7.3 7.1 7.0 6.9 6.9 7.0 6.8 6.6 6.5 6.5 6.5 6.3 6.2 6.2 6.1 6.1 6.1 5.8 5.3 4.7 4.3 3.8 4.0 4.1 4.2 3.6 3.5 3.4 3.9 3.7 4.2 4.5 4.6 4.5 4.4 4.5 4.5 4.5 4.4 4.4 4.4 4.2 4.2
7.4 7.4 7.2 7.3 7.4 7.4 7.6 7.6 7.5 7.4 7.3 7.2 6.9 6.7 6.6 6.5 6.4 6.4 6.3 6.2 6.1 6.1 6.0 6.0 5.9 5.8 5.9 5.8 5.6 5.3 4.7 4.2 3.9 3.7 3.9 4.3 4.2 4.0 3.8 3.5 3.7 4.3 4.5 4.5 4.6 4.8 4.7 4.6 4.7 4.7 4.7 4.6 4.4 4.4
7.2 7.0 6.9 7.0 7.1 7.2 7.2 7.2 7.2 7.1 7.0 6.8 6.7 6.5 6.3 6.1 6.0 5.9 5.9 6.0 6.0 5.9 5.9 5.7 5.4 5.2 5.1 5.1 4.9 4.9 4.7 4.4 4.1 4.1 4.3 4.4 4.2 4.1 3.7 3.6 3.9 4.3 4.4 4.5 4.6 4.8 4.8 4.8 4.9 4.8 5.0 4.8 4.6 4.5
7.0 7.0 6.9 6.9 6.8 6.8 6.9 6.8 6.8 6.7 6.5 6.5 6.3 6.0 5.7 5.6 5.3 5.1 5.2 5.3 5.3 5.2 5.2 5.1 4.7 4.6 4.5 4.4 4.3 4.3 4.4 4.3 4.0 3.8 3.9 3.9 3.6 3.7 3.8 3.7 3.8 4.1 4.3 4.6 4.9 4.9 4.8 4.9 5.1 5.1 5.0 4.9 4.9 4.7
6.5 6.5 6.4 6.3 6.4 6.4 6.4 6.3 6.3 6.2 6.0 5.7 5.5 5.3 5.1 4.8 4.5 4.6 4.6 4.6 4.6 4.6 4.5 4.6 4.4 4.2 4.2 4.3 4.3 4.3 4.3 4.4 4.4 4.3 4.1 4.1 4.2 4.3 4.0 3.9 4.4 4.6 4.7 4.8 4.7 4.8 5.0 5.2 5.3 5.4 5.3 5.3 5.1 4.9
Wind_Speed
14 13 12 13 16 22 28 24 32 32 32 32 31 29 27 26 22 9 2 10 4 3 4 4 6 5 3 3 4 3 3 1 2 1 3 3 3 4 0 4 6 8 7 5 3 3 9 7 4 4 5 3 3 2
14 15 12 12 13 14 20 31 24 31 32 33 32 33 32 30 29 19 2 6 5 3 3 0 1 1 1 4 5 5 2 4 5 2 1 1 3 1 3 4 2 3 7 5 10 7 0 6 4 6 2 3 3 2
14 14 16 14 12 12 14 16 18 21 23 30 33 35 35 34 33 27 3 5 4 3 3 2 4 4 2 1 1 4 3 3 3 1 3 1 6 4 4 6 2 4 4 3 3 3 6 8 3 3 2 2 3 3
16 16 15 15 15 14 13 12 13 18 20 14 29 34 36 39 38 34 4 7 3 3 3 3 1 2 1 0 1 2 4 4 5 1 2 2 2 2 3 3 4 5 6 5 7 12 11 6 4 2 2 3 5 5
17 17 17 14 14 15 15 14 14 14 17 18 21 31 34 37 38 24 3 6 1 4 3 2 2 2 2 4 4 4 4 4 1 2 2 3 2 1 2 2 5 7 8 6 7 6 4 3 4 1 1 3 4 2
17 17 18 17 14 15 15 16 17 16 16 18 22 26 30 32 27 6 2 6 12 3 2 3 2 1 3 5 4 4 2 2 2 2 2 2 1 1 2 4 6 11 5 5 4 3 3 2 2 3 2 4 3 1
19 19 19 18 18 15 14 14 17 19 18 18 20 21 16 37 23 3 4 2 20 8 2 3 3 1 3 3 1 2 1 1 2 2 3 2 2 4 2 6 2 6 13 6 4 5 3 3 4 2 3 5 5 3
21 20 19 19 19 18 14 13 14 18 21 20 21 24 9 31 11 3 10 11 17 5 2 3 1 2 5 3 3 3 2 1 2 2 2 3 2 3 6 15 7 3 1 3 8 4 4 4 1 3 1 2 4 5
25 23 21 19 19 19 17 13 13 17 26 7 24 36 9 4 2 3 14 13 11 3 4 4 5 5 5 2 2 2 3 3 1 3 3 5 4 8 14 10 9 11 8 4 5 4 3 1 5 4 2 3 3 6
27 25 24 22 19 19 18 14 13 15 17 27 5 3 3 1 34 17 3 2 2 2 3 4 4 4 5 3 2 3 2 3 3 5 4 5 6 12 14 20 8 9 11 10 6 2 1 5 6 3 4 3 4 3
29 27 26 23 21 19 18 15 13 6 15 2 2 2 1 13 1 1 3 4 4 4 5 3 3 5 4 5 4 4 4 4 3 4 5 4 5 7 8 13 16 11 14 10 5 4 6 5 6 5 4 3 3 4
31 29 27 26 23 21 19 17 13 5 1 6 9 5 2 1 1 4 5 3 5 6 3 6 4 3 4 2 3 5 5 4 6 6 3 5 6 9 8 7 11 13 15 12 6 9 7 6 6 5 3 2 3 4
32 30 30 28 26 24 21 20 19 19 18 2 3 4 4 3 5 7 9 4 4 5 6 4 4 4 3 2 3 3 6 6 7 4 6 6 4 4 7 7 10 8 12 11 7 5 7 4 4 4 4 4 5 5
32 32 31 30 28 25 23 24 20 25 3 4 6 7 8 5 6 6 6 6 4 4 8 7 3 3 2 4 3 5 3 3 4 5 8 4 10 12 10 9 12 12 12 13 10 8 7 7 6 5 5 4 3 3
33 32 31 30 30 27 25 26 27 9 3 5 4 6 9 6 2 2 3 3 1 8 10 4 3 2 2 4 3 4 4 7 8 7 4 4 6 10 11 11 13 13 10 10 7 8 8 7 6 4 4 4 3 1
32 30 21 31 30 28 26 23 12 3 3 4 6 4 1 2 2 1 2 2 3 8 3 2 4 3 5 4 5 10 6 10 5 4 3 2 6 9 10 11 12 12 11 10 9 8 7 7 6 5 3 2 2 2
31 12 24 34 30 29 25 4 3 6 6 6 5 1 3 1 3 4 4 4 8 9 4 3 8 9 3 3 5 6 7 3 3 3 2 5 8 10 12 12 11 12 11 11 9 8 7 6 6 5 3 1 2 1
15 15 30 34 31 13 2 5 4 5 7 3 3 3 2 2 3 2 2 10 7 4 5 5 3 4 6 7 5 4 6 4 2 1 2 4 9 10 11 13 12 12 11 10 10 8 7 7 6 4 4 4 2 1
14 16 33 33 17 5 5 5 3 5 4 2 2 2 2 1 1 2 4 10 2 2 3 3 4 4 6 4 3 3 2 2 3 1 1 5 10 13 12 11 12 10 10 10 9 7 6 7 6 4 4 4 3 2
27 33 31 31 16 3 4 2 1 3 4 2 1 1 2 2 2 3 5 8 3 2 3 5 7 4 4 3 2 2 1 3 4 2 2 4 7 11 11 11 9 10 8 7 6 10 4 4 3 4 3 4 3 2
24 11 19 7 2 3 2 3 1 3 2 3 2 3 1 1 2 3 3 5 3 4 5 8 10 5 3 2 2 3 3 6 6 5 5 6 7 8 8 6 9 8 7 6 7 6 9 5 4 4 3 3 3 2
3 16 3 3 3 0 3 1 3 1 2 2 2 2 2 2 2 4 4 3 4 5 6 3 2 3 4 3 3 4 3 6 5 4 9 12 9 9 9 8 9 8 6 7 7 7 5 4 4 4 3 3 4 3
12 5 3 3 3 3 1 1 3 3 2 3 1 2 1 2 3 4 3 4 5 4 4 4 3 4 5 4 3 3 5 7 5 5 8 8 6 6 7 8 8 9 7 3 4 5 5 10 8 5 4 3 2 1
7 3 4 3 3 4 2 0 1 2 2 2 3 3 2 3 0 1 4 3 3 1 2 5 5 2 0 2 4 6 6 4 3 3 7 8 8 7 7 7 6 6 5 6 6 5 5 5 9 4 4 3 2 2
5 4 4 3 1 4 3 3 3 2 3 5 3 1 2 1 3 4 4 3 2 3 3 2 2 4 6 5 2 4 2 6 8 8 5 6 6 6 6 4 4 6 7 8 6 7 6 4 5 5 4 4 4 4
5 2 5 5 3 5 6 6 7 6 4 3 4 2 1 2 2 6 3 3 3 4 5 6 6 7 6 4 2 4 6 2 5 5 5 7 9 11 11 10 8 5 4 7 8 9 8 6 6 7 4 6 9 5
5 5 0 0 3 4 2 1 1 3 5 6 4 5 4 4 7 1 1 2 2 4 6 6 5 7 7 7 1 3 4 5 4 3 5 4 1 5 9 13 14 7 8 9 9 10 11 10 8 6 5 3 4 4
2 3 5 3 1 1 4 3 5 7 4 3 5 5 6 4 2 4 2 4 7 7 7 7 7 5 6 7 3 6 5 6 8 8 7 6 3 2 3 3 6 19 10 8 8 8 8 9 8 8 5 5 4 3
1 1 3 3 2 3 4 4 4 1 1 3 4 2 2 3 3 4 4 8 8 7 6 5 5 4 4 3 3 2 5 7 8 9 10 5 3 1 2 4 7 7 7 8 15 11 9 8 8 7 7 5 4 3
2 1 2 3 4 4 0 2 1 1 1 2 2 3 3 2 2 3 6 6 7 7 7 5 5 5 3 3 2 4 4 3 3 3 6 7 5 4 4 6 7 6 7 9 8 8 15 8 10 4 4 3 2 3
2 1 2 2 1 1 1 1 0 0 1 2 2 2 3 3 2 3 8 7 7 7 8 8 7 8 8 7 4 3 3 4 5 4 3 4 6 7 6 5 5 6 7 8 9 8 10 6 5 7 6 5 6 6
2 2 1 2 1 1 1 1 1 1 1 2 2 1 2 2 3 5 7 8 8 9 11 9 7 6 8 7 6 4 8 4 4 4 4 3 3 5 6 5 5 5 6 7 6 5 5 7 6 6 7 8 7 7
1 1 2 2 2 2 1 1 1 2 3 2 3 2 3 3 3 4 4 6 6 5 7 6 4 5 7 7 7 6 7 4 3 12 12 10 11 9 5 4 5 5 7 5 5 4 5 6 4 6 6 6 6 6
Wind_Direction
344 348 346 358 1 349 3 242 217 211 204 204 200 197 195 187 188 169 238 185 138 166 260 199 184 155 127 162 164 165 82 337 62 154 178 236 180 234 74 221 186 176 162 205 195 260 292 164 128 160 219 270 218 239
325 327 332 343 346 341 341 360 237 211 209 205 200 196 192 189 182 181 185 183 137 130 221 244 253 296 229 159 136 179 186 160 180 127 218 81 255 112 176 275 87 267 201 187 193 227 230 205 196 239 203 219 253 176
309 313 320 325 331 326 344 340 346 354 237 213 203 197 193 190 184 182 151 151 84 93 313 34 223 197 125 136 220 134 281 157 183 193 156 188 246 132 202 236 230 251 171 234 12 278 243 238 228 209 146 283 289 195
296 302 302 311 319 326 323 323 324 332 340 270 218 209 200 192 188 183 171 173 109 122 159 268 69 316 13 222 93 63 133 91 105 102 121 162 223 118 244 252 220 196 146 208 262 278 275 281 205 120 333 314 322 329
289 288 292 293 308 315 320 319 311 317 317 316 334 229 209 199 189 177 88 214 337 145 192 240 6 150 113 126 105 88 98 103 90 98 133 224 228 359 278 322 240 186 197 180 229 225 156 209 153 94 258 272 258 247
275 284 283 289 289 302 312 317 322 311 304 306 310 326 229 200 147 100 332 221 219 126 61 305 330 28 79 106 93 104 118 115 124 151 223 231 174 178 271 255 249 214 212 179 229 148 155 159 217 137 195 267 260 257
266 271 279 281 281 282 294 306 310 317 318 305 295 294 280 159 159 150 195 129 169 112 100 261 227 149 135 121 66 95 8 108 128 134 227 220 196 183 236 250 240 224 224 211 176 106 314 184 213 211 215 263 305 245
260 260 265 272 278 274 277 293 309 309 311 310 302 291 193 137 97 46 19 106 134 93 143 247 227 203 192 167 155 166 133 153 162 194 193 199 158 201 248 239 248 234 185 214 192 191 166 140 159 295 280 325 348 344
264 263 261 264 268 277 274 279 303 307 308 325 112 107 94 50 96 77 77 59 39 113 196 200 193 216 156 124 101 139 154 183 150 222 229 165 197 224 226 237 204 196 194 204 139 124 91 198 271 279 306 351 4 314
251 253 256 259 261 268 270 268 285 292 140 125 71 65 113 101 120 113 58 86 160 248 240 236 112 167 138 140 160 134 182 213 199 225 144 229 253 251 254 241 210 182 185 144 124 205 174 255 225 232 219 209 202 254
243 243 243 244 251 252 257 250 260 274 154 43 94 88 88 127 75 104 166 189 196 228 200 169 162 142 217 154 159 197 179 180 216 198 200 241 261 239 227 226 217 183 173 181 171 178 156 151 164 197 230 227 237 266
238 238 238 237 237 242 246 239 235 177 225 145 111 99 126 182 195 182 201 202 204 234 166 154 184 141 152 163 132 174 184 165 236 137 189 255 237 224 188 186 167 162 165 161 162 146 145 142 159 171 180 236 250 260
234 232 231 230 229 233 236 232 222 143 128 84 98 138 168 166 202 211 193 219 211 188 170 176 136 130 136 182 118 169 178 208 118 197 232 239 247 217 181 165 152 151 154 144 142 121 138 142 162 177 199 236 250 271
234 230 226 223 223 225 226 228 206 162 167 175 165 180 203 198 232 194 196 186 199 116 139 138 114 159 147 155 147 183 186 128 225 239 234 238 227 195 176 177 154 165 165 161 158 151 163 169 180 199 211 222 224 276
230 228 223 218 215 219 221 228 189 171 203 212 185 217 210 223 247 230 145 104 83 139 142 95 75 128 164 159 187 103 168 234 217 232 230 254 187 164 171 173 170 156 156 153 146 163 171 172 170 178 212 217 200 273
227 227 220 212 209 215 219 224 193 123 215 233 220 208 218 103 286 173 179 142 148 144 99 85 142 166 214 198 171 209 184 227 232 218 231 139 161 159 164 175 168 156 161 155 158 163 159 166 162 174 148 164 219 169
222 222 206 204 202 208 210 146 166 186 217 213 227 184 167 84 212 162 143 150 151 152 174 154 189 204 105 195 231 201 219 232 241 247 144 167 176 173 162 154 149 148 152 154 151 152 157 148 132 131 147 184 142 213
215 211 188 190 193 190 66 192 212 192 223 222 171 215 194 166 155 155 154 153 153 199 160 206 126 194 209 207 230 231 227 249 274 261 185 153 155 161 161 148 149 151 151 152 151 147 142 143 153 170 171 146 127 40
196 184 185 185 168 129 163 215 231 192 197 183 256 255 163 207 268 128 141 171 84 108 132 168 212 223 227 227 273 288 231 186 212 198 111 149 164 162 152 146 143 143 145 147 150 163 162 169 167 159 155 145 155 178
183 185 180 175 143 132 177 224 338 138 174 195 120 182 177 193 159 138 154 171 130 152 200 220 220 213 199 214 197 260 270 165 145 136 140 168 169 153 156 153 152 145 137 141 141 150 138 127 143 155 157 158 147 190
179 155 143 102 80 67 121 142 149 208 162 161 192 153 184 33 140 147 151 147 180 216 237 227 234 211 174 179 216 230 192 188 213 189 174 177 173 160 147 141 139 149 149 156 160 169 167 171 170 160 158 119 140 152
122 102 97 68 92 75 89 328 127 153 85 194 125 137 134 168 184 181 135 188 225 226 212 191 195 210 218 211 212 219 190 212 220 186 158 146 163 157 164 162 153 155 162 174 170 172 169 169 142 141 151 155 154 160
99 75 76 103 100 61 165 28 111 160 143 215 39 96 232 199 213 134 214 227 244 226 208 196 195 201 212 174 195 226 192 189 199 168 163 166 158 154 151 161 162 157 160 174 160 152 159 165 171 155 154 136 142 151
63 76 125 114 104 136 106 108 88 96 84 170 182 208 201 180 1 190 247 240 261 262 226 214 182 166 74 153 205 210 198 174 124 124 163 157 155 162 157 164 162 152 157 148 155 157 151 150 170 146 126 123 165 169
113 178 139 127 81 108 132 134 164 118 185 204 140 231 230 114 182 237 239 274 329 340 338 305 285 254 252 241 200 205 157 170 185 172 169 175 142 124 127 144 144 141 144 146 161 158 155 155 148 144 152 151 182 178
201 122 146 156 155 157 172 160 190 176 154 168 189 166 125 141 181 243 233 350 343 9 359 347 341 313 272 268 220 191 199 167 158 172 178 174 169 165 168 171 169 187 174 162 159 166 165 167 154 153 164 200 196 165
164 188 264 310 132 118 95 75 119 139 173 178 170 165 158 206 235 242 15 39 339 328 314 301 285 280 290 307 302 113 140 156 167 150 128 129 125 184 177 169 182 176 159 159 164 168 169 171 166 164 172 197 193 166
115 146 167 204 102 149 148 157 175 193 187 167 133 186 193 218 324 340 346 349 324 308 296 284 269 267 273 272 190 136 109 108 102 102 93 71 37 46 94 105 121 151 152 156 160 159 164 166 162 161 165 185 193 180
94 194 110 130 177 200 192 183 195 130 26 157 170 145 107 67 351 328 313 323 317 309 318 325 321 317 317 344 45 88 132 143 141 151 156 147 139 167 176 133 127 134 142 157 172 166 160 155 155 164 168 171 178 139
264 346 112 159 177 213 86 360 86 37 42 62 92 111 102 120 88 358 351 347 349 341 328 346 345 349 345 348 40 63 34 28 35 150 171 172 183 138 146 139 137 142 146 151 151 156 166 152 154 105 115 122 128 130
334 65 76 47 95 24 31 25 40 114 74 66 24 69 103 131 147 41 17 357 348 348 10 7 9 15 5 4 1 23 56 28 20 33 67 113 136 151 157 147 139 141 143 147 152 152 160 146 149 155 161 173 191 178
1 53 150 132 110 114 250 232 147 90 82 70 47 68 124 99 48 11 3 359 3 9 360 3 2 347 342 333 331 327 67 54 40 33 51 87 94 122 124 126 125 132 133 135 136 133 130 144 157 171 181 189 191 201
65 67 89 114 124 179 177 206 141 98 56 69 51 41 41 53 71 7 342 0 347 320 334 326 322 321 326 332 341 342 9 343 352 85 90 104 121 127 113 120 127 128 126 125 133 135 150 140 164 183 188 185 196 202